Location: Aalen
(48.8330°N, 10.1000°E)
Time: 20:37:18
(UTC+02:00)

S-56A Canister/Altair - Pass Details

Date: 06 August 2021
Orbit: 632 x 2500 km, 38.9° (Epoch: 19 September)

Event Time Altitude Azimuth Distance (km) Brightness Sun altitude
Rises 16:24:56 0° 252° (WSW) 5,300 12.7 41.4°
Reaches altitude 10° 16:28:09 10° 248° (WSW) 4,510 12.6 40.9°
Maximum altitude 16:40:51 56° 175° (S) 2,754 11.0 39.0°
Drops below altitude 10° 16:55:23 10° 103° (ESE) 5,108 11.4 36.8°
Sets 16:59:17 0° 100° (E) 6,023 11.7 36.1°
